Regional Weather Roundup
Issued by NWS

Home | Current Version | Previous Version | Graphics & Text | Print | Product List | Glossary On
Versions: 1 2 3 4 5 6 7 8 9 10 11 12 13 14 15 16 17 18 19 20 21 22 23 24 25 26 27 28 29 30 31 32 33 34 35 36 37 38 39 40 41 42 43 44 45 46 47 48 49 50
577
ASUS43 KFSD 170410
RWRSD

WEATHER ROUNDUP FOR SOUTH DAKOTA
NATIONAL WEATHER SERVICE SIOUX FALLS SD
1000 PM CST MON JAN 16 2017

NOTE: "FAIR" INDICATES FEW OR NO CLOUDS BELOW 12,000 FEET WITH NO
SIGNIFICANT WEATHER AND/OR OBSTRUCTIONS TO VISIBILITY.


SDZ001>005-009-010-012>017-170500-
NORTHWEST AND NORTH CENTRAL SOUTH DAKOTA

CITY           SKY/WX    TMP DP  RH WIND       PRES   REMARKS
BUFFALO          N/A     17   8  67 W12       29.99S WCI   4
FAITH            N/A     15  11  83 NW14      30.06S WCI   0
MOBRIDGE       CLOUDY     9   4  80 N7        30.05R WCI  -2
$$

SDZ012>016-024>037-041>051-057-063-072>074-170500-
SOUTHWEST AND SOUTH CENTRAL SOUTH DAKOTA

CITY           SKY/WX    TMP DP  RH WIND       PRES   REMARKS
RAPID CTY ARPT CLOUDY    21  11  65 NW6       30.07S WCI  13
PIERRE         CLOUDY    12  10  92 W6        30.07R WCI   3
CUSTER         CLOUDY    25   6  44 W6        30.03S WCI  18
ELLSWORTH AFB  CLEAR     23  12  62 W6        30.05S WCI  16
PHILIP         CLOUDY    17  12  80 W6        30.10R WCI   9
PINE RIDGE     CLOUDY     8   6  92 E3        30.09S
SPEARFISH      FAIR      27  10  50 SW6       30.06S WCI  20
WINNER         FAIR      17  13  84 W3        30.06S
$$

SDZ004>011-016>023-039-040-170500-
NORTHEAST SOUTH DAKOTA

CITY           SKY/WX    TMP DP  RH WIND       PRES   REMARKS
ABERDEEN       CLEAR      3  -2  79 CALM      30.05S
WATERTOWN      FOG        9   6  88 CALM      29.98F VSB 1/4
BROOKINGS      CLOUDY    17  14  88 NW5       29.98S WCI  10
SISSETON         N/A      7   4  87 CALM      30.02S
$$

SDZ017-020-022-023-036>040-048>070-170500-
SOUTHEAST SOUTH DAKOTA

CITY           SKY/WX    TMP DP  RH WIND       PRES   REMARKS
SIOUX FALLS    CLOUDY    30  27  88 N5        29.98R WCI  25
HURON          CLOUDY     5   2  87 NW7       30.05S WCI  -7
CHAMBERLAIN    CLOUDY    15  12  89 W7        30.07S WCI   5
MITCHELL       CLOUDY    14   9  80 NW8       30.06S WCI   3
YANKTON        CLOUDY    21  16  79 CALM      30.02S
$$

ABBREVIATIONS USED IN REMARKS
   TC - TEMPERATURE IN CELSIUS
  WCI - WIND CHILL INDEX
   HX - HEAT INDEX
  VSB - VISIBILITY





USA.gov is the U.S. government's official web portal to all federal, state and local government web resources and services.